Location: Dompnac
(44.5644°N, 4.1026°E)
Time: 11:37:27
(UTC+00:00)

USA 238 DEB - Pass Details

Date: 19 September 2020
Orbit: 1004 x 1208 km, 63.4° (Epoch: 28 October)

Event Time Altitude Azimuth Distance (km) Brightness Sun altitude
Rises 18:47:34 0° 323° (NW) 3,929 7.5 -11.7°
Reaches altitude 10° 18:50:20 10° 329° (NNW) 2,999 6.7 -12.2°
Maximum altitude 18:57:16 49° 43° (NE) 1,460 4.2 -13.4°
Enters shadow 19:02:32 19° 111° (ESE) 2,494 5.0 -14.3°
